Zurück zum Katalog

CZ-6A DEB

AktivPO
NORAD 61291·DEBRIS·🇨🇳 China

Gestartet Aug 6, 2024 von Taiyuan Satellite Launch Center

Loading…

Nächste Überflüge (nächste 24 Stunden)

TLE

AktuellSource: Space-Track

Epoche: Sep 14, 2026, 17:51 UTC

1 61291U 24140TC  26257.74416859  .00003383  00000-0  15610-2 0  9998
2 61291  89.0210 267.3154 0082749 279.9915  79.1944 14.19028012105627

Verfolge CZ-6A DEB in Echtzeit mit AllMySat

Download on the App Store